This is the latest recevied weather packets stored in our database for station/object S56VIL-11. If no packets are shown the sender has not sent any weather packets the latest 10 day(s).
| Time | Temp. | Humidity | Pressure | Rain* | Wind** | Luminosity | Snow |
|---|---|---|---|---|---|---|---|
| 1777619396 | 9.44° C | 56% | 1037.8 hPa | - | - | - | - |
| 1777618499 | 8.89° C | 57% | 1037.7 hPa | - | - | - | - |
| 1777617602 | 8.89° C | 58% | 1037.8 hPa | - | - | - | - |
| 1777616698 | 8.33° C | 57% | 1037.6 hPa | - | - | - | - |
| 1777615795 | 8.33° C | 57% | 1037.4 hPa | - | - | - | - |
| 1777614898 | 8.33° C | 58% | 1037.5 hPa | - | - | - | - |
| 1777613995 | 9.44° C | 57% | 1037.3 hPa | - | - | - | - |
| 1777613097 | 9.44° C | 57% | 1037.3 hPa | - | - | - | - |
| 1777612194 | 6.67° C | 56% | 1037.2 hPa | - | - | - | - |
| 1777611297 | 6.67° C | 56% | 1037 hPa | - | - | - | - |
| 1777610394 | 6.67° C | 56% | 1037 hPa | - | - | - | - |
| 1777609497 | 5.56° C | 57% | 1037 hPa | - | - | - | - |
| 1777608593 | 5° C | 57% | 1037 hPa | - | - | - | - |
| 1777607696 | 3.89° C | 58% | 1037 hPa | - | - | - | - |
| 1777606793 | 3.89° C | 58% | 1037 hPa | - | - | - | - |
| 1777605896 | 3.33° C | 58% | 1037 hPa | - | - | - | - |
| 1777604993 | 3.89° C | 58% | 1036.9 hPa | - | - | - | - |
| 1777604096 | 3.89° C | 57% | 1037 hPa | - | - | - | - |
| 1777603192 | 3.89° C | 57% | 1037 hPa | - | - | - | - |
| 1777602295 | 3.33° C | 58% | 1037.2 hPa | - | - | - | - |
| 1777601392 | 3.89° C | 58% | 1037.2 hPa | - | - | - | - |
| 1777600495 | 3.33° C | 58% | 1037.2 hPa | - | - | - | - |
| 1777599592 | 3.33° C | 58% | 1037.3 hPa | - | - | - | - |
| 1777598695 | 3.33° C | 58% | 1037.3 hPa | - | - | - | - |
| 1777597792 | 3.33° C | 58% | 1037.2 hPa | - | - | - | - |
* Rain since midnight (hover to see other rain measurements)
** Current wind speed in m/s (hover to see current wind gust speed)